This is the latest recevied weather packets stored in our database for station/object KE0YJJ-14. If no packets are shown the sender has not sent any weather packets the latest 10 day(s).
| Time | Temp. | Humidity | Pressure | Rain* | Wind** | Luminosity | Snow |
|---|---|---|---|---|---|---|---|
| 1777666781 | 12.22° C | 31% | - | 0 mm | - | - | - |
| 1777666478 | 12.22° C | 34% | - | 0 mm | - | - | - |
| 1777666175 | 12.22° C | 36% | - | 0 mm | - | - | - |
| 1777665872 | 10.56° C | 32% | - | 0 mm | - | - | - |
| 1777665569 | 11.67° C | 31% | - | 0 mm | - | - | - |
| 1777665266 | 11.67° C | 30% | - | 0 mm | - | - | - |
| 1777664961 | 10.56° C | 31% | - | 0 mm | - | - | - |
| 1777664658 | 10.56° C | 31% | - | 0 mm | - | - | - |
| 1777664354 | 10.56° C | 31% | - | 0 mm | - | - | - |
| 1777664052 | 11.67° C | 28% | - | 0 mm | - | - | - |
| 1777663750 | 11.67° C | 30% | - | 0 mm | - | - | - |
| 1777663447 | 11.67° C | 30% | - | 0 mm | - | - | - |
| 1777663144 | 11.11° C | 33% | - | 0 mm | - | - | - |
| 1777662841 | 10.56° C | 38% | - | 0 mm | - | - | - |
| 1777662538 | 10° C | 33% | - | 0 mm | - | - | - |
| 1777662234 | 11.11° C | 34% | - | 0 mm | - | - | - |
| 1777661928 | 11.11° C | 34% | - | 0 mm | - | - | - |
| 1777661625 | 10° C | 35% | - | 0 mm | - | - | - |
| 1777661321 | 10° C | 34% | - | 0 mm | - | - | - |
| 1777661017 | 11.11° C | 33% | - | 0 mm | - | - | - |
| 1777660713 | 10.56° C | 34% | - | 0 mm | - | - | - |
| 1777660410 | 10° C | 35% | - | 0 mm | - | - | - |
| 1777660106 | 10.56° C | 33% | - | 0 mm | - | - | - |
| 1777659804 | 10.56° C | 37% | - | 0 mm | - | - | - |
| 1777659500 | 9.44° C | 36% | - | 0 mm | - | - | - |
* Rain latest hour (hover to see other rain measurements)
** Current wind speed in m/s (hover to see current wind gust speed)